Regional Weather Roundup
Issued by NWS

Home | Current Version | Previous Version | Graphics & Text | Print | Product List | Glossary On
Versions: 1 2 3 4 5 6 7 8 9 10 11 12 13 14 15 16 17 18 19 20 21 22 23 24 25 26 27 28 29 30 31 32 33 34 35 36 37 38 39 40 41 42 43 44 45 46 47 48 49 50
000
ASUS43 KLSX 151307
RWRMO

WEATHER SUMMARY FOR MISSOURI
NATIONAL WEATHER SERVICE SPRINGFIELD MO
800 AM CDT TUE APR 15 2014

NOTE: "FAIR" INDICATES FEW OR NO CLOUDS BELOW 12,000 FEET WITH NO
       SIGNIFICANT WEATHER AND/OR OBSTRUCTIONS TO VISIBILITY.
       CURRENT SKY AND/OR WEATHER CONDITIONS ARE NOT AVAILABLE FOR
       CHILLICOTHE AND FARMINGTON.

MOZ001>031-035>038-043-044-053-054-151400-
...NORTHERN AND WESTERN MISSOURI...

CITY           SKY/WX    TMP DP  RH WIND       PRES   REMARKS
KANSAS CTY INT MOSUNNY   32  26  78 SW5       30.22R WCI  27
KANSAS C DTWN  SUNNY     34  29  82 CALM      30.23R
LEE`S SUMMIT   SUNNY     31  26  82 CALM      30.22R
ST JOSEPH      SUNNY     29  26  89 CALM      30.23R
CHILLICOTHE      N/A     28  25  88 CALM      30.22S
KIRKSVILLE     SUNNY     29  22  75 NW5       30.21R WCI  24

$$
MOZ066>068-077>081-088>096-101>105-151400-
...SOUTHWEST MISSOURI...

CITY           SKY/WX    TMP DP  RH WIND       PRES   REMARKS
SPRINGFIELD    SUNNY     30  24  78 CALM      30.21R
JOPLIN         SUNNY     30  26  85 S3        30.24R

$$
MOZ032>034-039>042-045>050-055>058-069>072-151400-
...CENTRAL MISSOURI...

CITY           SKY/WX    TMP DP  RH WIND       PRES   REMARKS
COLUMBIA       SUNNY     30  24  78 W5        30.22R WCI  25
JEFFERSON CITY SUNNY     31  26  82 CALM      30.24R
ROLLA          SUNNY     30  24  78 NW7       30.19R WCI  23
SEDALIA        SUNNY     33  26  75 W3        30.23R
WHITEMAN AFB   SUNNY     31  25  78 W2        30.22R
OSAGE BEACH    SUNNY     30  25  80 CALM      30.23S

$$
MOZ051-052-059>065-151400-
...EAST CENTRAL MISSOURI...

CITY           SKY/WX    TMP DP  RH WIND       PRES   REMARKS
ST LOUIS INTL  SUNNY     35  22  58 NW9       30.19R WCI  28
SPIRIT OF STL  SUNNY     33  22  63 NW8       30.21R WCI  26
ST CHARLES     SUNNY     34  20  56 NW12      30.20R WCI  25

$$
MOZ072>076-082>087-097>100-106>115-151400-
...SOUTH CENTRAL AND SOUTHEAST MISSOURI...

CITY           SKY/WX    TMP DP  RH WIND       PRES   REMARKS
CAPE GIRARDEAU SUNNY     35  25  66 NW12      30.19R WCI  27
FARMINGTON     SUNNY     32  21  64 NW10      30.19R WCI  24
POPLAR BLUFF   SUNNY     36  23  59 MISG      30.20R
WEST PLAINS    SUNNY     33  22  63 N6        30.20R WCI  28

$$



USA.gov is the U.S. government's official web portal to all federal, state and local government web resources and services.